Weather History for Winnemucca, NV

Change the Weather History Date:

Friday, March 16, 2012

  Actual Average Record
Temperature  
Mean Temperature 51 °F 41 °F  
Max Temperature 60 °F 56 °F 76 °F (2007)
Min Temperature 41 °F 27 °F 2 °F (1906)
Degree Days  
Heating Degree Days 14 24  
Month to date heating degree days 404 401  
Since 1 July heating degree days 5042 4990  
Cooling Degree Days 0 0  
Month to date cooling degree days 0 0  
Year to date cooling degree days 0 0  
Growing Degree Days 2 (Base 50)    
Moisture  
Dew Point 36 °F    
Average Humidity 63    
Maximum Humidity 89    
Minimum Humidity 36    
Precipitation  
Precipitation 0.04 in 0.03 in 0.46 in (1907)
Month to date precipitation 0.16 0.42  
Year to date precipitation 1.45 1.95  
Snow  
Snow 0.00 in 0.20 in 4.50 in (1881)
Month to date snowfall 1.4 1.8  
Since 1 July snowfall 18.3 17.8  
Snow Depth 0.00 in    
Sea Level Pressure  
Sea Level Pressure 29.67 in    
Wind  
Wind Speed 11 mph (SSW)    
Max Wind Speed 22 mph    
Max Gust Speed 28 mph    
Visibility 10 miles    
Events Rain    
T = Trace of Precipitation, MM = Missing Value Source: NWS Daily Summary

Daily Weather History Graph

Daily Weather History Graph

Search for Another Location

Airport:

Trip Planner

Search our weather history database for the weather conditions in past years. The results will help you decide how hot, cold, wet, or windy it might be!

Date:

Astronomy

Mar. 16, 2012 Rise Set
Actual Time 7:00 AM PDT 6:59 PM PDT
Civil Twilight 6:32 AM PDT 7:27 PM PDT
Nautical Twilight 6:01 AM PDT 7:59 PM PDT
Astronomical Twilight 5:28 AM PDT 8:31 PM PDT
Moon 3:24 AM PDT (3/16) 1:22 PM PDT (3/16)
Length of Visible Light 12h 54m
Length of Day
11h 59m
Waning Crescent, 32% of the Moon is Illuminated
Mar 16
Waning Crescent
Mar 22
New
Mar 30
First Quarter
Apr 6
Full
Apr 13
Last Quarter

Hourly Weather History & Observations

Time (PDT) Temp. Windchill Dew Point Humidity Pressure Visibility Wind Dir Wind Speed Gust Speed Precip Events Conditions
12:56 AM 52.0 °F - 35.1 °F 53% 29.79 in 10.0 mi South 12.7 mph - N/A   Mostly Cloudy
2:56 AM 52.0 °F - 35.1 °F 53% 29.73 in 10.0 mi SSE 13.8 mph 20.7 mph N/A   Overcast
3:56 AM 51.1 °F - 34.0 °F 52% 29.72 in 10.0 mi SSW 3.5 mph - N/A   Overcast
5:56 AM 51.1 °F - 32.0 °F 48% 29.72 in 10.0 mi SSW 8.1 mph - N/A   Overcast
6:56 AM 50.0 °F - 32.0 °F 50% 29.74 in 10.0 mi WSW 12.7 mph - 0.00 in   Overcast
7:56 AM 48.9 °F - 33.1 °F 54% 29.76 in 9.0 mi WSW 12.7 mph - 0.00 in Rain Light Rain
8:56 AM 50.0 °F - 34.0 °F 54% 29.76 in 10.0 mi WSW 11.5 mph - 0.00 in   Overcast
9:56 AM 48.9 °F - 37.9 °F 66% 29.77 in 10.0 mi West 12.7 mph - 0.00 in Rain Light Rain
10:56 AM 51.1 °F - 34.0 °F 52% 29.77 in 10.0 mi WSW 8.1 mph - 0.00 in   Mostly Cloudy
11:56 AM 52.0 °F - 34.0 °F 50% 29.74 in 10.0 mi NNE 6.9 mph - N/A   Mostly Cloudy
12:56 PM 55.9 °F - 33.1 °F 42% 29.70 in 10.0 mi SSW 10.4 mph - N/A   Overcast
1:56 PM 59.0 °F - 32.0 °F 36% 29.65 in 10.0 mi SW 13.8 mph 19.6 mph 0.00 in   Mostly Cloudy
2:56 PM 55.9 °F - 33.1 °F 42% 29.62 in 10.0 mi SSE 6.9 mph - 0.00 in   Overcast
3:56 PM 48.0 °F - 42.1 °F 80% 29.67 in 10.0 mi West 12.7 mph 23.0 mph 0.04 in Rain Light Rain
5:56 PM 48.0 °F - 39.0 °F 71% 29.61 in 10.0 mi SE 8.1 mph - 0.00 in   Overcast
6:56 PM 48.0 °F - 39.0 °F 71% 29.59 in 10.0 mi South 9.2 mph - N/A   Mostly Cloudy
7:56 PM 44.1 °F 39.0 °F 41.0 °F 89% 29.57 in 10.0 mi South 9.2 mph - 0.00 in   Mostly Cloudy
8:56 PM 46.0 °F 40.2 °F 37.9 °F 73% 29.56 in 10.0 mi South 12.7 mph - N/A   Scattered Clouds
9:56 PM 46.0 °F 39.6 °F 37.0 °F 71% 29.51 in 10.0 mi SE 15.0 mph - N/A   Clear
10:56 PM 45.0 °F 40.1 °F 36.0 °F 71% 29.50 in 10.0 mi SE 9.2 mph - N/A   Mostly Cloudy
11:56 PM 46.0 °F 41.4 °F 36.0 °F 68% 29.50 in 10.0 mi South 9.2 mph 19.6 mph 0.00 in Rain Light Rain